{"data":{"norad_id":68959,"intl_designator":"2026-099J","name":"STARLINK-37033","alt_names":[],"object_type":"PAYLOAD","status":"ACTIVE","operator":null,"country":"US","launch_date":"2026-05-01","launch_site_code":"AFETR","launch_vehicle":null,"mission":null,"orbit_class":"UNKNOWN","rcs_meters":null,"size_class":null,"mass_kg":null,"dimensions":null,"purposes":["comms"],"wikipedia_slug":null,"has_3d_model":false,"image_url":null,"decayed_at":null,"tle_current":{"epoch":"2026-09-19T23:33:15.990912Z","epoch_age_seconds":64186,"freshness":"FRESH","line1":"1 68959U 26099J   26262.98143508  .00020872  00000+0  62778-3 0  9990","line2":"2 68959  53.1554  78.3111 0000746  44.8841 315.2222 15.34367994 21820","mean_motion":15.34367994,"eccentricity":7.46e-5,"inclination_deg":53.1554,"raan_deg":78.3111,"arg_perigee_deg":44.8841,"mean_anomaly_deg":315.2222,"bstar":0.00062778,"rev_number":2182,"period_min":93.849715689521,"perigee_km":462.28803665903,"apogee_km":463.3087042163,"semimajor_km":6840.9353704377,"source":"CELESTRAK","updated_at":"2026-09-20T09:00:44.053031Z"}}}